Location: Flensburg
(54.6357°N, 9.5142°E)
Time: 00:15:37
(UTC+02:00)

ISS - Visible Passes

Search period start: 22 October 2019 00:00
Search period end: 31 October 2019 23:00
Orbit: 411 x 421 km, 51.6° (Epoch: 21 October)

Date Brightness Start Highest point End Pass type
(mag) Time Alt. Az. Time Alt. Az. Time Alt. Az.
26 Oct -0.9 06:50:01 10° S 06:51:51 14° SE 06:53:42 10° ESE visible
27 Oct -2.0 06:36:26 10° SW 06:39:26 30° SSE 06:42:26 10° E visible
28 Oct -1.7 05:48:11 10° SSW 05:50:57 24° SSE 05:53:43 10° E visible
29 Oct -1.4 05:01:14 15° S 05:02:29 18° SSE 05:04:53 10° ESE visible
29 Oct -2.7 06:35:29 10° WSW 06:38:41 43° SSE 06:41:54 10° E visible
30 Oct -0.8 04:14:50 13° SE 04:14:50 13° SE 04:15:45 10° ESE visible
30 Oct -2.5 05:47:44 15° SW 05:50:08 36° SSE 05:53:16 10° E visible
31 Oct -2.3 05:01:13 28° S 05:01:35 29° SSE 05:04:33 10° E visible
31 Oct -3.1 06:34:40 10° WSW 06:37:57 50° S 06:41:15 10° E visible
